TimeCST,TemperatureF,Dew PointF,Humidity,Sea Level PressureIn,VisibilityMPH,Wind Direction,Wind SpeedMPH,Gust SpeedMPH,PrecipitationIn,Events,Conditions,WindDirDegrees,DateUTC
12:10 AM,44.6,42.8,93,29.48,10.0,SE,16.1,21.9,N/A,,Overcast,140,2012-12-15 06:10:00
12:55 AM,44.1,42.1,93,29.45,6.0,SE,12.7,-,0.00,Rain,Light Rain,140,2012-12-15 06:55:00
1:55 AM,45.0,43.0,93,29.41,7.0,SSE,10.4,-,0.01,Rain,Light Rain,150,2012-12-15 07:55:00
2:11 AM,44.6,42.8,93,29.40,6.0,SSE,10.4,-,0.01,Rain,Light Rain,150,2012-12-15 08:11:00
2:55 AM,46.0,44.1,93,29.39,9.0,South,11.5,-,0.03,Rain,Light Rain,170,2012-12-15 08:55:00
3:05 AM,46.4,44.6,93,29.39,9.0,South,13.8,-,0.00,,Overcast,170,2012-12-15 09:05:00
3:55 AM,46.0,44.1,93,29.38,10.0,South,13.8,-,0.01,Rain,Light Rain,180,2012-12-15 09:55:00
4:30 AM,46.4,44.6,93,29.39,10.0,South,15.0,-,0.00,,Overcast,190,2012-12-15 10:30:00
4:55 AM,46.0,43.0,89,29.39,10.0,SSW,17.3,24.2,0.00,,Overcast,200,2012-12-15 10:55:00
5:41 AM,44.6,42.8,93,29.42,10.0,WSW,6.9,-,N/A,,Scattered Clouds,240,2012-12-15 11:41:00
5:55 AM,45.0,43.0,93,29.44,10.0,West,12.7,-,N/A,,Mostly Cloudy,260,2012-12-15 11:55:00
6:19 AM,46.4,44.6,93,29.46,10.0,West,13.8,-,N/A,,Overcast,270,2012-12-15 12:19:00
6:27 AM,46.4,44.6,93,29.47,9.0,West,15.0,-,N/A,,Overcast,270,2012-12-15 12:27:00
6:36 AM,46.4,44.6,93,29.48,8.0,West,13.8,-,N/A,,Overcast,270,2012-12-15 12:36:00
6:55 AM,45.0,43.0,93,29.48,10.0,WNW,18.4,-,N/A,,Overcast,290,2012-12-15 12:55:00
7:28 AM,44.6,42.8,93,29.50,10.0,West,11.5,-,N/A,,Overcast,270,2012-12-15 13:28:00
7:55 AM,44.1,43.0,96,29.53,10.0,West,10.4,-,N/A,,Overcast,270,2012-12-15 13:55:00
8:06 AM,44.6,42.8,93,29.52,10.0,West,13.8,19.6,N/A,,Overcast,280,2012-12-15 14:06:00
8:55 AM,45.0,42.1,90,29.56,10.0,West,12.7,-,N/A,,Overcast,280,2012-12-15 14:55:00
9:45 AM,44.6,41.0,87,29.58,10.0,WNW,20.7,26.5,N/A,,Overcast,300,2012-12-15 15:45:00
9:55 AM,44.1,41.0,89,29.60,10.0,WNW,16.1,-,N/A,,Overcast,300,2012-12-15 15:55:00
10:55 AM,45.0,41.0,86,29.62,10.0,WNW,15.0,-,N/A,,Overcast,300,2012-12-15 16:55:00
11:55 AM,46.0,41.0,83,29.62,10.0,NW,9.2,-,N/A,,Mostly Cloudy,310,2012-12-15 17:55:00
12:55 PM,46.9,41.0,80,29.62,10.0,WNW,12.7,-,N/A,,Mostly Cloudy,300,2012-12-15 18:55:00
1:27 PM,48.2,41.0,76,29.60,10.0,WNW,10.4,-,N/A,,Scattered Clouds,290,2012-12-15 19:27:00
1:55 PM,48.0,39.9,74,29.61,10.0,WNW,9.2,-,N/A,,Clear,300,2012-12-15 19:55:00
2:55 PM,51.1,39.9,66,29.63,10.0,WNW,8.1,-,N/A,,Partly Cloudy,290,2012-12-15 20:55:00
3:55 PM,51.1,39.9,66,29.66,10.0,WNW,8.1,-,N/A,,Scattered Clouds,290,2012-12-15 21:55:00
4:55 PM,46.9,37.9,71,29.68,10.0,NNW,8.1,-,N/A,,Clear,330,2012-12-15 22:55:00
5:55 PM,44.1,37.0,76,29.70,10.0,NNW,4.6,-,N/A,,Clear,330,2012-12-15 23:55:00
6:55 PM,42.1,37.0,82,29.72,10.0,North,4.6,-,N/A,,Clear,10,2012-12-16 00:55:00
7:55 PM,39.0,36.0,89,29.74,9.0,Calm,Calm,-,N/A,,Clear,0,2012-12-16 01:55:00
8:55 PM,37.9,34.0,86,29.74,9.0,NNE,5.8,-,N/A,,Clear,20,2012-12-16 02:55:00
9:55 PM,37.0,34.0,89,29.74,8.0,NNE,3.5,-,N/A,,Clear,20,2012-12-16 03:55:00
10:55 PM,36.0,33.1,89,29.75,8.0,Calm,Calm,-,N/A,,Clear,0,2012-12-16 04:55:00
11:55 PM,35.1,32.0,89,29.75,7.0,NW,5.8,-,N/A,,Mostly Cloudy,320,2012-12-16 05:55:00